269  
ASUS43 KGRB 190311  
RWRGRB  
 
NORTH-CENTRAL AND NORTHEAST WISCONSIN REGIONAL WEATHER ROUNDUP  
NATIONAL WEATHER SERVICE GREEN BAY WI  
1000 PM CDT WED JUL 18 2018  
 
WIZ005-009-010>012-018-019-190400-  
NORTH CENTRAL WISCONSIN  
 
CITY SKY/WX TMP DP RH WIND PRES REMARKS
 
IRONWOOD FAIR 62 59 90 CALM 30.01S  
MANITOWISH WTR FAIR 58 58 100 CALM 30.03S  
ARBOR VITAE FAIR 62 58 87 CALM 30.03S  
EAGLE RIVER FAIR 58 53 83 CALM 30.04R  
LAND O LAKES FAIR 58 56 93 CALM 30.05S  
RHINELANDER FAIR 61 58 90 CALM 30.04S  
PHILLIPS FAIR 61 60 97 CALM 30.02S  
ANTIGO FAIR 59 55 88 SE6 30.05S  
TOMAHAWK FAIR 57 55 91 CALM 30.04S  
MERRILL FAIR 61 57 86 CALM 30.04R  

 
 
WIZ013-073-190400-  
NORTHEAST WISCONSIN  
 
CITY SKY/WX TMP DP RH WIND PRES REMARKS
 
IRON MOUNTAIN FAIR 66 57 72 S6 30.03R  
MARINETTE FAIR 65 57 75 S6 30.04S  
OCONTO FAIR 66 58 76 S3 30.04S  

 
 
WIZ017-030-035>037-045-190400-  
CENTRAL WISCONSIN  
 
CITY SKY/WX TMP DP RH WIND PRES REMARKS
 
MEDFORD FAIR 59 54 84 CALM 30.03R  
WAUSAU FAIR 66 55 67 E5 30.02R  
MOSINEE FAIR 64 55 72 CALM 30.04R  
MARSHFIELD FAIR 67 56 67 CALM 30.02R  
WISC RAPIDS FAIR 67 55 65 CALM 30.03R  
STEVENS POINT FAIR 66 56 70 CALM 30.03S  
WAUPACA FAIR 69 61 76 E6 30.03R  
SHAWANO FAIR 68 58 72 S7 30.03S  
CLINTONVILLE FAIR 66 57 73 SE7 30.04R  
WAUTOMA FAIR 67 61 81 CALM 30.03R  

 
 
WIZ038-039-048-051-190400-  
FOX VALLEY  
 
CITY SKY/WX TMP DP RH WIND PRES REMARKS
 
NWS GREEN BAY FAIR 65 56 72 SE8 30.05S  
APPLETON MOCLDY 66 54 63 E7 30.03R  
OSHKOSH FAIR 68 57 68 SE10 30.04R  
FOND DU LAC FAIR 66 55 67 S8 30.05R  

 
 
WIZ022-050-052-190400-  
EAST CENTRAL WISCONSIN  
 
CITY SKY/WX TMP DP RH WIND PRES REMARKS
 
EPHRAIM FAIR 61 55 83 S5 30.04S  
WASHINGTON ISL FAIR 63 55 76 S3 30.04R  
STURGEON BAY FAIR 62 54 74 S7 30.05S  
MANITOWOC FAIR 63 58 83 SE3 30.06F  
SHEBOYGAN FAIR 59 55 87 CALM 30.06R  

 
 
LMZ563-521-522-541>543-190400-  
LAKESHORE  
 
STATION/POSITION TIME TEMP WIND PRES VSBY WAVE
 
AIR SEA DIR/SP/G HT/PER  
(UTC) (F) (DEG/KT/KT) (MB) (MI) (FT/S)  
SHEBOYGAN LKSHOR 0300 67 110/ 7/ 7 1017.5S  
KEWAUNEE LKSHORE 0242 65 190/ 4/ 6 1017.1S  
NORTHPORT PIER 0240 65 170/ 2/ 4 1017.3R  
N MID LAKE BUOY 0250 67 68 220/ 10/ 10 1016.9R 1/ 3  
S GREEN BAY BUOY 0300 73 75 170/ 14/ 16 1017.0  
SISTER BAY LKSHO 0225 65 160/ 8/ 10 N/A  
MENOMINEE LKSHOR 0236 69 170/ 9/ 13 1016.9R  

 
 
 
CLICK HERE TO GO TO PREVIOUS BULLETINS.

The Nexlab WI Page Main Text Page